Probability
0 0 0 0 0 0 0 0 0 0 0 0 0 0 0 0 0 0 0 0 0 0 0 0 0 0 0 0 0 0 0 0 0 0 0 0 0 0 0 0 0 0 0
0 0 0 0 0 0 0 0 0 0 0 0 0 0 0 0 0 0 0 0 0 0 0 0 0 0 0 0 0 0 0 0 0 0 0 0 0 0 0 0 0 0 0
0 0 0 0 0 0 0 0 0 0 0 0 0 0 0 0 0 0 0 0 0 0 0 0 0 0 0 0 0 0 0 0 0 0 0 0 0 0 0 0 0 0 0
0 0 0 0 0 0 0 0 0 0 0 0 0 0 0 0 0 0 0 0 0 0 0 0 0 0 0 0 0 0 0 0 0 0 0 0 0 0 0 0 0 0 0
0 0 0 0 0 0 0 0 0 0 0 0 0 0 0 0 0 0 0 0 0 0 0 0 0 0 0 0 0 0 0 0 0 0 0 0 0 0 0 0 0 0 0
0 0 0 0 0 0 0 0 0 0 0 0 0 0 0 0 0 0 0 0 0 0 0 0 0 0 0 0 0 0 0 0 0 0 0 0 0 0 0 0 0 0 0
0 0 0 0 0 0 0 0 0 0 0 0 0 0 0 0 0 0 0 0 0 0 0 0 0 0 0 0 0 0 0 0 0 0 0 0 0 0 0 0 0 0 0
1 1 0 0 0 0 0 0 0 0 0 0 0 0 0 0 0 0 0 0 0 0 0 0 0 0 0 0 0 0 0 0 0 0 0 0 0 0 0 0 0 0 0
1 1 0 0 0 0 0 0 0 0 0 0 0 0 0 0 0 0 0 0 0 0 0 0 0 0 0 0 0 0 0 0 0 0 0 0 0 0 0 0 0 0 0
2 1 0 0 0 0 0 0 0 0 0 0 0 0 0 0 0 0 0 0 0 0 0 0 0 0 0 0 0 0 0 0 0 0 0 0 0 0 0 0 0 0 0
1 1 0 0 0 0 0 0 0 0 0 0 0 0 0 0 0 0 0 0 0 0 0 0 0 0 0 0 0 0 0 0 0 0 0 0 0 0 0 0 0 0 0
0 0 0 0 0 0 0 0 0 1 2 1 1 0 0 0 0 0 0 0 0 0 0 0 0 0 0 0 0 0 0 0 0 0 0 0 0 0 0 0 0 0 0
0 0 0 0 0 0 0 0 0 1 2 2 2 1 1 0 0 0 0 0 0 0 0 0 0 0 0 0 0 0 0 0 0 0 0 0 0 0 0 0 0 0 0
0 0 0 0 0 0 0 0 0 1 1 2 3 2 2 1 1 1 0 0 0 0 0 0 0 0 0 0 0 0 0 0 0 0 0 0 0 0 0 0 0 0 0
0 0 0 0 0 0 0 0 0 0 1 1 2 2 3 3 2 2 1 0 1 1 0 0 0 0 0 0 0 0 0 0 0 0 0 0 0 0 0 0 0 0 0
1 1 1 0 0 0 0 0 0 0 0 0 0 1 2 3 3 3 2 2 2 2 1 1 0 0 0 0 0 0 0 0 0 0 0 0 0 0 0 0 0 0 0
2 2 1 0 0 0 0 0 0 0 0 0 0 0 1 2 2 3 3 3 3 3 3 2 1 0 0 0 0 0 0 0 0 0 0 0 0 0 0 0 0 0 0
1 1 1 0 0 0 0 0 1 1 1 0 0 0 0 1 1 1 3 3 3 3 3 3 2 1 0 0 0 0 0 0 0 0 0 0 0 0 0 0 0 0 0
0 0 0 0 0 0 0 0 1 2 1 1 1 1 0 0 0 1 2 3 3 3 3 3 3 2 1 0 0 0 0 0 0 0 0 0 0 0 0 0 0 0 0
0 0 0 0 0 0 0 0 1 1 1 1 1 1 0 0 0 1 2 3 2 2 2 3 3 2 1 0 0 0 0 0 0 0 0 0 0 0 0 0 0 0 0
0 0 0 0 0 0 0 0 0 0 0 0 1 1 0 0 0 0 1 1 1 1 1 1 1 1 0 0 0 0 0 0 0 0 0 0 0 0 0 0 0 0 0
0 0 0 0 0 0 0 0 0 0 0 0 0 0 0 0 0 0 0 0 0 0 0 0 0 0 0 0 0 0 0 0 0 0 0 0 0 0 0 0 0 0 0
0 0 0 0 0 0 0 0 0 0 0 0 0 0 0 0 0 0 0 0 0 0 0 0 0 0 0 0 0 0 0 0 0 0 0 0 0 0 0 0 0 0 0
0 0 0 0 0 0 0 0 0 0 0 0 0 0 0 0 0 0 0 0 0 0 0 0 0 0 0 0 0 0 0 0 0 0 0 0 0 0 0 0 0 0 0
0 0 0 0 0 0 0 0 0 0 0 0 0 0 0 0 0 0 0 0 0 0 0 0 0 0 0 0 0 0 0 0 0 0 0 0 0 0 0 0 0 0 0
0 0 0 0 0 0 0 0 0 0 0 0 0 0 0 0 0 0 0 0 0 0 0 0 0 0 0 0 0 0 0 0 0 0 0 0 0 0 0 0 0 0 0
Wind_Speed
7 6 5 5 6 5 6 6 6 6 7 7 7 7 8 8 8 8 5 8 11 13 14 15 14 14 15 14 14 14 14 14 14 14 14 14 14 13 13 13 13 13 12
7 7 7 6 6 6 6 6 7 6 6 6 7 8 9 9 9 9 9 8 11 14 16 16 16 16 16 16 16 16 16 16 15 15 15 15 15 15 15 15 15 14 14
9 8 7 7 7 7 7 6 7 6 6 7 8 9 8 9 9 10 10 9 8 11 15 17 18 18 17 17 17 17 17 17 16 16 16 16 16 17 16 16 16 16 15
11 9 8 8 8 7 6 7 6 6 7 7 7 7 7 8 10 11 10 10 9 8 10 15 17 18 18 18 18 18 18 18 17 17 16 17 17 18 18 18 18 18 17
12 10 8 8 8 7 7 7 7 6 7 7 7 7 8 9 10 10 11 12 11 10 9 9 13 16 18 19 19 19 19 19 18 17 17 17 18 18 18 19 19 19 19
12 11 8 9 8 7 7 7 8 7 7 7 7 8 9 10 9 10 11 10 9 10 10 10 8 9 15 18 19 20 20 20 19 18 17 17 17 18 19 19 19 20 20
12 11 9 9 9 8 9 9 8 8 7 5 5 7 9 10 10 9 8 8 9 9 9 9 8 7 7 13 18 19 20 20 20 19 18 17 17 18 18 19 20 20 20
12 10 11 9 9 9 10 10 9 6 5 6 5 5 6 5 6 7 7 7 8 7 8 9 9 9 8 6 8 15 18 19 19 19 18 18 18 18 18 18 19 19 19
12 11 12 10 10 9 9 10 10 10 7 7 7 6 5 5 5 4 7 7 7 7 7 7 9 9 10 8 8 10 15 17 18 18 18 17 18 18 18 18 18 18 18
11 11 11 11 10 8 9 9 9 9 9 7 6 8 9 7 6 5 4 6 7 8 9 7 8 9 9 8 8 10 11 13 15 16 16 17 17 17 18 18 18 18 17
8 9 9 9 9 8 9 9 9 9 8 9 7 6 8 8 9 8 9 7 6 7 8 8 7 8 8 8 7 9 11 13 13 14 15 15 16 17 17 17 18 17 17
6 8 8 8 8 8 8 8 8 10 9 10 8 7 6 6 7 8 10 10 9 7 7 7 8 8 7 7 8 9 10 12 13 13 13 14 14 15 16 17 17 17 17
5 6 6 7 7 7 8 7 8 8 9 10 9 8 8 8 7 8 9 10 10 8 7 7 6 7 6 6 6 9 10 11 12 12 12 12 13 13 14 15 16 16 16
4 4 5 6 6 7 7 7 7 7 7 8 9 9 7 7 7 8 8 9 10 9 8 8 5 5 5 6 7 8 7 10 11 12 12 12 12 12 12 14 15 15 15
2 3 3 4 5 5 5 6 5 6 6 7 7 7 7 6 6 7 7 7 9 10 10 7 5 4 5 5 6 6 7 8 10 11 11 11 11 11 12 13 14 14 15
1 2 2 2 2 2 3 4 4 5 6 6 5 7 7 6 6 6 6 6 7 9 10 7 5 5 4 5 5 7 7 7 8 9 9 10 10 11 11 12 13 13 14
0 0 1 1 1 2 2 2 3 4 5 5 5 6 7 7 5 5 5 6 6 7 10 10 7 6 6 6 5 5 5 6 5 7 8 9 10 10 11 11 12 12 13
1 1 1 1 1 1 1 2 3 3 4 5 5 5 6 5 6 5 5 6 6 6 8 11 8 6 6 6 6 6 4 4 5 6 7 9 9 10 10 11 11 11 11
2 2 2 2 2 2 2 2 2 3 3 4 4 5 5 5 6 5 5 6 6 6 6 8 8 6 5 4 5 5 5 5 5 5 6 8 9 10 10 10 10 10 10
3 2 2 2 2 2 2 3 3 3 3 3 4 4 5 5 6 6 5 6 6 6 6 6 7 6 5 4 3 4 5 5 5 4 6 6 7 8 9 10 10 10 10
3 3 3 3 3 2 3 3 3 3 3 3 4 4 4 5 5 5 5 6 6 6 5 5 6 6 5 3 4 4 5 5 5 4 4 4 4 5 6 7 8 9 10
3 3 3 3 3 3 5 5 4 3 3 3 4 4 4 4 5 6 6 7 7 7 7 6 6 7 7 6 5 4 4 5 5 2 3 5 4 6 5 5 7 9 9
3 3 3 3 3 4 6 6 5 3 3 3 4 4 4 4 5 6 7 7 6 7 8 8 8 9 8 6 6 6 5 6 7 4 4 6 4 6 5 5 8 9 10
2 2 3 3 3 4 7 7 6 3 3 3 3 4 5 5 5 6 6 6 6 6 7 7 8 9 8 7 6 7 7 6 5 3 3 5 5 5 5 5 8 10 11
2 3 3 3 3 5 7 7 6 3 3 4 4 4 5 5 7 8 6 7 7 6 7 8 9 10 10 9 6 4 4 4 6 5 3 4 4 5 5 6 6 8 10
2 2 3 3 4 4 7 8 7 3 3 4 4 4 5 7 8 9 6 6 7 7 6 7 7 8 7 6 6 5 4 4 5 5 2 2 3 3 5 4 4 4 5
Wind_Direction
220 220 223 224 228 230 231 235 241 246 250 254 254 258 262 263 264 262 259 236 246 257 261 264 264 263 260 256 253 250 248 246 243 241 241 241 240 241 240 239 240 241 241
225 223 225 225 229 230 234 239 244 247 250 252 255 256 259 262 260 261 264 253 237 247 255 260 262 263 262 261 257 254 251 248 245 241 240 240 240 241 241 240 241 242 242
227 227 230 228 228 228 232 237 244 248 253 254 257 257 256 257 260 260 261 262 255 239 243 253 258 260 261 262 261 259 256 253 250 245 242 240 239 240 241 240 241 241 240
224 227 231 233 230 227 227 230 235 239 246 252 258 261 258 257 257 258 258 256 256 255 243 241 250 255 258 260 260 260 258 257 254 250 245 242 240 241 241 241 240 239 239
219 222 230 234 230 226 229 230 233 235 246 250 256 262 263 261 260 257 255 255 253 253 255 243 237 247 254 258 259 260 261 260 257 254 249 246 243 244 243 242 241 240 240
217 220 227 231 228 227 229 228 234 233 243 254 261 264 265 262 259 257 256 253 249 248 248 251 245 238 241 251 257 259 260 261 260 258 255 251 248 246 246 246 244 243 241
219 219 223 226 223 226 231 230 229 236 239 237 255 270 266 255 253 251 250 249 245 243 242 244 246 249 243 241 248 254 257 259 261 261 260 257 254 252 251 250 248 247 244
223 222 225 226 223 226 231 230 224 229 231 213 230 269 285 271 232 239 243 243 247 243 240 241 243 243 248 249 244 247 254 258 260 261 261 259 257 256 255 254 253 251 249
224 223 227 229 228 226 230 228 223 227 235 222 217 233 259 273 300 244 235 239 240 241 246 246 245 247 245 245 251 243 246 254 259 260 261 261 259 258 257 257 257 257 255
223 224 228 230 232 230 234 233 228 228 233 236 221 225 241 264 273 285 248 240 243 249 253 250 249 250 248 245 243 248 245 248 254 259 261 263 262 261 260 259 259 260 260
219 223 225 228 231 233 236 236 233 231 230 237 235 225 233 242 244 258 275 274 262 251 252 256 257 256 252 248 248 250 243 243 247 252 256 259 261 262 263 262 261 261 262
217 220 224 228 232 235 237 239 239 238 237 239 241 236 232 235 236 241 257 270 274 271 263 254 252 253 255 254 252 250 246 245 247 249 251 254 257 260 261 262 263 263 263
220 223 222 230 234 237 240 240 241 241 240 242 243 244 243 245 249 250 258 268 273 276 269 256 247 248 250 253 255 245 245 247 250 250 250 251 254 256 258 260 263 265 264
228 232 228 234 239 242 243 242 242 244 246 247 250 250 251 252 251 251 256 268 277 276 267 264 253 241 248 252 257 249 255 245 247 249 250 250 251 252 253 257 259 261 262
237 236 234 237 241 244 248 249 247 250 253 254 256 257 257 261 260 259 257 255 265 278 279 275 268 250 251 255 257 260 260 254 247 250 252 252 250 249 251 255 258 261 259
236 233 235 239 247 251 252 251 257 260 259 261 263 263 263 266 268 268 266 262 255 263 274 280 281 278 261 258 260 264 267 265 253 253 254 254 255 254 254 256 258 261 259
19 287 259 249 255 269 273 265 266 276 271 271 270 269 269 271 272 271 270 267 263 261 269 279 278 284 275 272 273 271 275 274 270 254 255 255 256 256 255 256 258 259 258
48 33 16 357 344 335 317 289 280 282 279 280 284 283 283 287 285 286 284 281 277 273 272 279 282 284 280 279 282 279 278 280 277 270 261 260 258 257 257 257 258 258 257
58 47 43 37 23 10 347 325 304 299 295 293 295 293 294 297 291 292 292 289 287 287 278 278 285 289 289 294 290 288 291 285 283 277 267 262 259 259 259 259 259 260 256
58 49 44 32 20 12 3 350 339 321 308 304 302 299 300 299 295 295 292 293 292 287 283 279 283 291 294 310 303 290 292 289 287 286 273 271 269 266 264 263 260 258 255
53 49 47 38 28 18 8 357 335 320 314 311 311 311 310 313 314 312 305 300 296 288 286 284 283 288 289 305 293 293 285 292 286 271 281 281 280 278 271 266 261 258 254
53 50 45 43 32 21 18 9 349 324 316 311 313 317 318 319 323 316 307 300 295 288 287 283 282 281 285 288 289 283 285 292 287 274 286 284 276 273 275 272 267 263 260
55 51 41 37 33 23 17 11 357 325 318 316 317 318 319 325 319 314 309 302 296 292 284 282 280 279 285 286 288 284 278 275 274 281 283 281 275 272 277 272 266 263 260
58 52 41 31 27 22 19 13 1 338 330 326 321 318 317 322 331 326 315 311 309 305 300 287 281 284 287 287 277 275 277 280 285 281 261 273 278 278 283 271 262 260 260
62 53 40 30 26 23 19 12 0 342 339 337 337 335 328 323 334 333 318 310 309 310 317 309 301 298 300 297 290 286 282 283 287 283 263 266 283 294 288 276 268 261 261
69 57 48 37 26 18 17 15 5 349 340 335 335 337 339 336 337 337 321 312 308 314 319 320 315 312 308 307 299 278 270 272 283 279 261 259 282 298 291 283 286 283 274